www.pogodaiklimat.ru
ПОГОДА в Богде
Время
(UTC), дата
09 24.07
12 24.07
15 24.07
18 24.07
21 24.07
00 25.07
03 25.07
06 25.07
09 25.07
12 25.07
15 25.07
18 25.07
21 25.07
00 26.07
03 26.07
06 26.07
09 26.07
12 26.07
15 26.07
18 26.07
21 26.07
00 27.07
03 27.07
06 27.07
09 27.07
12 27.07
15 27.07
18 27.07
21 27.07
00 28.07
03 28.07
06 28.07
09 28.07
12 28.07
15 28.07
18 28.07
21 28.07
00 29.07
03 29.07
06 29.07
09 29.07
12 29.07
15 29.07
18 29.07
21 29.07
00 30.07
03 30.07
06 30.07
09 30.07
12 30.07
15 30.07
18 30.07
21 30.07
00 31.07
Ветер
(напр.,м/с)
Видим. Явления Облачность Т
(С)
Тd
(С)
f
(%)
Тe
(С)
Тes
(С)
Комфортность P
(гПа)
Po
(гПа)
Тmin
(С)
Tmax
(С)
R
(мм)
R24
(мм)
S
(см)
В 8 50 км 8/5 1000 м
[Sc Ac und]
+19.0 +17.1 89 +20 +20 1005.1 841.8
В 6 20 км осадки на расстоянии 9/5 600 м
[Sc Ac As]
+17.0 +15.5 91 +16 +16 1006.6 842.0 +19.6 12
штиль 0 н/о осадки на расстоянии 9/6 600 м
[Sc Ac As]
+15.9 +14.9 94 +16 +16 1007.6 842.3
С 3 н/о слаб. дождь 10/10 600 м
[Ns]
+14.7 +14.7 100 +14 +14 1007.5 841.6
С 2 н/о слаб. дождь 9/5 600 м
[Sc As op]
+15.0 +15.0 100 +15 +15 1007.2 841.5
С 6 4000 м слаб. дождь 10/10 600 м
[Sc As op]
+14.4 +14.4 100 +12 +12 1007.9 841.7 +14.3 9
С 4 4000 м слаб. дождь 10/10 600 м
[Ns]
+14.3 +14.3 100 +13 +13 1008.6 842.3
С 5 10 км осадки на расстоянии 9/6 600 м
[Sc Ac As]
+15.6 +14.1 91 +14 +16 1007.6 842.1
СВ 4 50 км {дождь} 9/5 1000 м
[Sc Ac und]
+17.7 +12.8 73 +17 +19 1005.8 841.7
В 3 50 км {дождь} 8/5 1000 м
[Sc Ac und]
+16.2 +13.7 85 +16 +16 1007.7 842.5 +17.8 0.9
СЗ 2 н/о осадки на расстоянии 9/6 600 м
[Sc Ac As]
+15.0 +13.5 91 +15 +15 1009.6 843.5
штиль 0 н/о осадки на расстоянии 9/6 600 м
[Sc Ac As]
+14.3 +13.8 97 +14 +14 1009.7 843.2
штиль 0 н/о слаб. дождь 10/10 600 м
[Sc As op]
+12.8 +12.5 98 +12 +12 1010.8 843.3
штиль 0 20 км осадки на расстоянии 9/6 600 м
[Sc Ac As]
+13.1 +12.9 99 +13 +13 1011.0 843.6 +12.6 2
ЮВ 2 20 км осадки на расстоянии 9/6 600 м
[Sc Ac As]
+15.5 +12.6 83 +15 +18 1009.7 843.8
В 4 50 км 9/6 1000 м
[Cu Sc Ac und Ci sp]
+17.2 +13.7 80 +17 +20 1007.7 843.0
штиль 0 50 км 9/5 1000 м
[Cu Sc Ac cast Ci sp]
+19.0 +12.3 65 +20 +23 1005.4 842.0
В 3 50 км 8/4 1000 м
[Sc diur, vesp Ac cuf Ci sp]
+17.7 +13.2 75 +18 +18 1006.4 842.2 +19.3
штиль 0 50 км 4/3 1000 м
[Sc diur, vesp Ac cuf]
+15.7 +14.1 90 +15 +15 1007.9 842.4
штиль 0 50 км 3/0 2000 м
[Ac trans]
+13.6 +13.6 100 +13 +13 1009.0 842.2
штиль 0 50 км 4/3 1000 м
[Sc Ac trans]
+12.7 +12.7 100 +12 +12 1008.9 841.7
штиль 0 50 км 4/3 1000 м
[Sc Ac und]
+16.5 +13.6 83 +16 +19 1006.9 842.0 +12.0
штиль 0 50 км 4/3 1000 м
[Cu med, cong Ac cast]
+20.0 +12.0 60 +21 +33 комфорт 1004.4 841.7
С 2 50 км гроза без осадков 8/5 1000 м
[Cb calv Ac cuf Ci ing]
+21.6 +11.9 54 +24 +30 комфорт 1001.9 840.4
ЮЗ 2 50 км в посл. час ливневой дождь {гроза} 8/4 1000 м
[Cb calv Ac cuf Ci ing]
+19.7 +13.6 68 +22 +25 комфорт 1002.4 839.9
СЗ 1 50 км {гроза, ливн. дождь} 8/4 1000 м
[Sc diur, vesp Ac cuf Ci ing]
+21.6 +11.0 51 +23 +24 комфорт 1001.2 839.8 +22.8 0.3
ЮВ 1 50 км 3/0 2000 м
[Ac cuf]
+16.8 +16.0 95 +18 +18 1004.6 840.2
СЗ 2 50 км 1/0
[Ci sp]
+15.4 +13.8 90 +15 +15 1005.3 840.1
Ю 2 50 км ясно +14.0 +13.2 95 +13 +13 1006.0 839.9
Ю 2 50 км 3/0 2000 м
[Ac cast Cc]
+17.4 +13.9 80 +18 +20 1004.0 840.0 +13.8
З 2 50 км 3/1 1000 м
[Cu hum Ac cast]
+23.9 +10.2 42 +25 +36 комфорт 999.7 839.7
З 5 50 км гроза без осадков 8/5 1000 м
[Cb calv Ac cuf Ci ing]
+21.1 +12.0 56 +23 +26 комфорт 1000.4 838.9
ЮЗ 5 50 км {гроза, ливн. дождь} 6/4 1000 м
[Cb calv Ac cuf Ci ing]
+24.8 +10.3 40 +26 +28 жарко 997.0 837.9
З 4 50 км {гроза, ливн. дождь} 6/3 1000 м
[Sc diur, vesp Ac cast]
+23.4 +10.5 44 +25 +25 комфорт 997.8 837.9 +26.1 0.1
Ю 2 50 км 3/0 2000 м
[Ac trans]
+17.9 +12.8 72 +18 +18 1002.8 839.3
С 2 50 км ясно +15.0 +13.7 92 +15 +15 1005.3 839.9
Ю 1 50 км ясно +12.7 +12.7 100 +13 +13 1006.1 839.3
ЮВ 2 50 км 3/3 1000 м
[Sc Ac cast]
+17.5 +13.4 77 +18 +20 1002.5 838.8 +12.5
ЮВ 2 50 км 4/3 1000 м
[Cu hum Ac trans Ci sp]
+26.2 +11.9 41 +28 +37 жарко 996.4 838.1
З 6 50 км 5/3 1000 м
[Cu med, cong Ac cast]
+28.3 +7.5 27 +28 +31 жарко 995.0 837.9
З 5 50 км 5/3 1000 м
[Cu med, cong Ac cast Ci sp]
+29.4 +6.1 23 +28 +31 жарко 993.7 837.3
СЗ 4 50 км 3/1 1000 м
[Sc diur, vesp Ac cuf]
+27.3 +3.7 22 +26 +26 жарко 995.1 837.5 +29.8
С 6
{13}
50 км 3/0 2000 м
[Ac trans]
+20.2 +13.4 65 +22 +22 комфорт 1001.5 839.4
С 1 50 км ясно +16.9 +13.8 82 +18 +18 1004.9 840.5
ЮЗ 1 50 км ясно +14.8 +12.3 85 +15 +15 1006.8 841.0
ЮВ 1 50 км ясно +16.4 +12.2 76 +17 +21 1007.0 842.0 +13.2
В 4 50 км 1/1 1000 м
[Cu hum]
+21.1 +8.0 43 +22 +30 комфорт 1004.2 842.1
ЮВ 2 50 км 3/3 1000 м
[Cu hum Ci fib]
+24.3 +6.6 32 +24 +36 комфорт 1001.1 841.1
ЮВ 1 50 км 3/1 1000 м
[Cu hum Ci sp]
+25.7 +6.3 29 +25 +33 комфорт 999.8 840.7
С 5 50 км 4/3 1000 м
[Sc Ac trans Ci fib]
+24.2 +7.8 35 +25 +25 комфорт 1000.7 840.7 +26.2
В 6 50 км 3/0 2000 м
[Ac trans Ci fib]
+20.4 +8.7 47 +21 +21 комфорт 1004.9 842.3
СВ 1 50 км ясно +17.6 +7.4 51 +19 +19 1009.0 844.3
С 2 50 км 3/0 2000 м
[Ac trans Ci fib]
+14.4 +8.4 67 +14 +14 1011.7 844.9
В 3 50 км 3/1 1000 м
[Sc Ci sp]
+16.1 +10.2 68 +16 +18 1012.1 846.1 +13.5
Местоположение метеостанции Богд (Монголия): широта 44.65 долгота 102.16 высота над уровнем моря 1646 м.
В архиве по умолчанию представлена погода в Богде за последнюю неделю. Архивные данные за месяц целиком и за предыдущие месяцы, начиная с января 2011 года, Вы можете получить, выбрав интересующий диапазон дат из раскрывающегося списка и нажав кнопку "Найти!".
*Определитесь, кто Вы:
Внимание! Время в таблицах - всемирное. Для получения местного времени необходимо прибавить поправку, которая равна 8 ч.
Смотрите также архив погоды в соседних городах и на ближайших метеорологических станциях:
Партнеры нашего сайта:      
Пояснения к столбцам:
  • Ветер - указаны скорость ветра в м/с - средняя за 10 мин, порывы в срок и между сроками (в фигурных скобках) и направление, откуда дует ветер: С - северный,
  • СВ - северо-восточный, В - восточный, ЮВ - юго-восточный, Ю - южный, ЮЗ - юго-западный, З - западный, СЗ - северо-западный.
  • Видимость - горизонтальная дальность видимости в метрах или километрах. При видимости от 1 до 10 км при отсутствии осадков обычно наблюдается дымка, при ухудшении видимости до 1 км и менее - туман. В сухую погоду видимость может ухудшаться дымом, пылью или мглою.
  • Явления - указаны атмосферные явления, наблюдавшиеся в срок или в последний час перед сроком; фигурными скобками обозначены явления, наблюдавшиеся между сроками (за 1-3 часа до срока); квадратными скобками обозначены град или гололедные отложения с указанием их диаметра в мм.
  • Облачность - указаны через наклонную черту общая и нижняя облачность в баллах и высота нижней границы облаков в метрах; квадратными скобками обозначены формы облаков: Ci - перистые, Cs - перисто-слоистые, Cc - перисто-кучевые, Ac - высококучевые, As - высокослоистые, Sc - слоисто-кучевые, Ns - слоисто-дождевые, Cu - кучевые, Cb - кучево-дождевые. Подробнее классификацию облаков см. в Атласе облаков (PDF).
  • T - Температура воздуха - температура, измеренная на высоте 2 м над землей.
  • Td - Температура точки росы - температура, при понижении до которой содержащийся в воздухе водяной пар достигнет насыщения.
  • f - Относительная влажность воздуха - влажноcть воздуха, измеренная на высоте 2 м над землей.
  • Te - Эффективная температура - температура, которую ощущает одетый по сезону человек в тени. Характеристика душности погоды. При расчете учитывается влияние влажности воздуха и скорости ветра на теплоощущения человека.
  • Tes - Эффективная температура на солнце - температура, которую ощущает человек, с поправкой на солнечный нагрев. Характеристика знойности погоды. Зависит от высоты солнца над горизонтом, облачности и скорости ветра. Ночью, в пасмурную погоду, а также при ветре 12 м/с и более поправка равна нулю.
  • P - Атмосферное давление - приведенное к уровню моря атмосферное давление.
  • Po - Атмосферное давление - измеренное на уровне метеостанции атмосферное давление.
  • Tmin - Минимальная температура - минимум температуры воздуха на высоте 2 м над землей.
  • Tmax - Максимальная температура - максимум температуры воздуха на высоте 2 м над землей.
  • R - Количество осадков - Количество выпавших осадков за период времени, мм. При наведении курсора мыши на число - период времени, за который выпало указанное количество осадков.
  • R24 - Количество осадков - Количество выпавших осадков за 24 часа, мм.
  • S - Снежный покров - Высота снежного покрова, см. При наведении курсора мыши на число - состояние снежного покрова и степень покрытия местности в баллах.